sat.trackr.live / text

‹ back to catalog

STARLINK-5873

NORAD 56490 · 2023-064AU

PAYLOAD ACTIVE UNKNOWN

§ Identity

Operator
Country
US
Launch date
2023-05-10
Launch site
AFWTR
Launch vehicle
Mass (kg)
RCS (m²)

Purposes: comms

External: N2YO · Heavens-Above · Gunter

§ Orbital elements

Epoch: 2026-05-24T18:17:00.083328Z

Period
96.11 min
Inclination
69.9990°
Eccentricity
0.0002930
Mean motion
14.98337762 rev/d
Perigee alt
570.0 km
Apogee alt
574.1 km
Semi-major
6,950.2 km
B*
-2.0553e-5
RAAN
272.7953°
Arg perigee
266.2822°
Mean anomaly
93.8002°
Rev number
16,762

§ Raw data

STARLINK-58731 56490U 23064AU  26144.76180652 -.00000338  00000+0 -20553-4 0  99952 56490  69.9990 272.7953 0002930 266.2822  93.8002 14.98337762167629

JSON: /api/v1/satellites/56490 · /tle

For live sub-satellite position, see the globe view (requires WebGL).

§ Visibility from observer

Set your observer location to see the next 7 days of passes ≥ 10°. The values pass through the URL so the page stays shareable.

No JS? Fill the form by hand. The geolocation button needs JavaScript.